{"data":{"norad_id":67109,"epoch":"2026-09-20T23:19:57.864864Z","epoch_age_seconds":37978,"freshness":"FRESH","line1":"1 67109U 25299H   26263.97219751  .00017839  00000+0  65604-3 0  9991","line2":"2 67109  42.9998 146.0146 0001184 266.7399  93.3317 15.27589263 44073","mean_motion":15.27589263,"eccentricity":0.0001184,"inclination_deg":42.9998,"raan_deg":146.0146,"arg_perigee_deg":266.7399,"mean_anomaly_deg":93.3317,"bstar":0.00065604,"rev_number":4407,"period_min":94.26617709868,"perigee_km":482.20899827571,"apogee_km":483.83372057522,"semimajor_km":6861.1583594255,"source":"CELESTRAK","updated_at":"2026-09-21T09:00:36.105055Z"}}